sat.trackr.live / text

‹ back to catalog

SDA_1677

NORAD 65987 · 2025-230P

PAYLOAD ACTIVE UNKNOWN

§ Identity

Operator
Country
US
Launch date
2025-10-15
Launch site
AFWTR
Launch vehicle
Mass (kg)
RCS (m²)

External: N2YO · Heavens-Above · Gunter

§ Orbital elements

Epoch: 2026-05-25T04:51:10.236384Z

Period
104.45 min
Inclination
81.3004°
Eccentricity
0.0001112
Mean motion
13.78595926 rev/d
Perigee alt
968.1 km
Apogee alt
969.7 km
Semi-major
7,347.0 km
B*
2.2599e-4
RAAN
233.5420°
Arg perigee
142.3962°
Mean anomaly
217.7269°
Rev number
3,059

§ Raw data

SDA_16771 65987U 25230P   26145.20220181  .00000241  00000+0  22599-3 0  99972 65987  81.3004 233.5420 0001112 142.3962 217.7269 13.78595926 30590

JSON: /api/v1/satellites/65987 · /tle

For live sub-satellite position, see the globe view (requires WebGL).

§ Visibility from observer

Set your observer location to see the next 7 days of passes ≥ 10°. The values pass through the URL so the page stays shareable.

No JS? Fill the form by hand. The geolocation button needs JavaScript.